User: anonymous   Login
Location: Lawrence
(38.9720°N, 95.2350°W)
Time: 03:52:31
(UTC-05:00)
Language:

JAS-1B - Orbit

View from above orbital plane
View from above orbital plane
View from above satellite
View from above satellite

Ground track
Ground track

The orbit data is extracted from the following two-line orbital elements,

1 20480U 90013C   17174.95137987 -.00000049 +00000-0 -38748-4 0  9995
2 20480 099.0564 306.8543 0540455 015.7534 345.9668 12.83415531282541
Epoch (UTC): 23 June 2017 22:49:59
Eccentricity: 0.0540455
inclination: 99.0564°
perigee height: 911 km
apogee height: 1744 km
right ascension of ascending node: 306.8543°
argument of perigee: 15.7534°
revolutions per day: 12.83415531
mean anomaly at epoch: 345.9668°
orbit number at epoch: 28254

The dashed part of the orbit path shows where the satellite is in the earth's shadow,  

DLR